Погода в Заозерном

Россия / Красноярский край     55°57′42″N   94°42′33″E
темп.,
°C
ветер,
м/с
пор.,
м/с
влажн.,
%
обл.,
%
осадки,
мм/ч
давл.,
гПа
погр.,
м
19 мая, ср
ср1901:00+4з229394 0.1 100723
04:00+5з2292100 0.0 100648
07:00+7сз127896 0.0 1005190
10:00+11с234833 0.0 10041045
13:00+13св133694 0.0 10032343
16:00+14св2235100 0.0 10022229
19:00+11ссв3550100 0.0 1003276
22:00+8ссв234999 0.0 100363
20 мая, чт
чт2001:00+5сз3464100 0.0 1004101
04:00+5зсз1263100 0.0 100564
07:00+5зсз3466100 0.0 1006326
10:00+8сз5446100 0.0 10071568
13:00+10зсз3336100 0.0 10072497
16:00+10ссз333897 0.0 10072112
19:00+9ссз454781 0.0 10091695
22:00+5с3568100 0.0 1012135
21 мая, пт
пт2101:00+4ссз2288100 0.1 101339
04:00+2сз2392100 0.0 101456
07:00+5сз357997 0.0 1016507
10:00+9ссз3451100 0.0 10171223
13:00+13ссв3435100 0.0 10172401
16:00+12ссз564198 0.0 10182131
19:00+12сз48405 0.0 1019627
22:00+6зсз22595 0.0 102116
22 мая, сб
сб2201:00+4зсз226774 0.0 102315
04:00+3з227244 0.0 102430
07:00+7з366450 0.0 1025288
10:00+11зсз5744100 0.0 10242318
13:00+12зсз5744100 0.0 10241870
16:00+13зсз5739100 0.0 10232172
19:00+11зсз585497 0.1 10241128
22:00+7зюз3668100 0.0 1024108
23 мая, вс
вс2301:00+8зюз3973100 0.1 1023255
04:00+7зюз61079100 0.2 10221159
07:00+7з71383100 0.5 1021875
10:00+7з71385100 0.6 1021713
13:00+11з71380100 0.7 1020865
16:00+13з7127778 0.4 1020914
19:00+14зюз712757 1.1 1019691
22:00+11зюз7158217 0.1 1019428